Regional Weather Roundup
Issued by NWS

Home | Current Version | Previous Version | Text Only | Print | Product List | Glossary On
Versions: 1 2 3 4 5 6 7 8 9 10 11 12 13 14 15 16 17 18 19 20 21 22 23 24 25 26 27 28 29 30 31 32 33 34 35 36 37 38 39 40 41 42 43 44 45 46 47 48 49 50
284
ASUS43 KLOT 271108
RWRIL

ILLINOIS REGIONAL WEATHER ROUNDUP
NATIONAL WEATHER SERVICE CHICAGO/ROMEOVILLE IL
600 AM CDT MON MAR 27 2017

NOTE: "FAIR" INDICATES FEW OR NO CLOUDS BELOW 12,000 FEET WITH NO
SIGNIFICANT WEATHER AND/OR OBSTRUCTIONS TO VISIBILITY.

* THESE STATIONS ARE NOT UNDER NWS QUALITY CONTROL. THEY ALSO MAY NOT
  REPORT WEATHER SUCH AS PRECIPITATION OR FOG.

ILZ001-002-007-009-015-016-024-271200-
NORTHWEST ILLINOIS

CITY           SKY/WX    TMP DP  RH WIND       PRES   REMARKS
MOLINE         CLOUDY    48  45  89 CALM      29.90R FOG
STERLING*      CLOUDY    47  46  97 NW3       29.91R FOG
SAVANNA*       CLOUDY    46  44  95 NW3       29.92R FOG
$$

ILZ003-004-008-010-011-017-018-271200-
NORTH CENTRAL ILLINOIS

CITY           SKY/WX    TMP DP  RH WIND       PRES   REMARKS
ROCKFORD       CLOUDY    46  43  89 CALM      29.92S
FREEPORT*      FOG       43  43  99 CALM      29.92R VSB 1
ROCHELLE*      CLOUDY    46  46  99 CALM      29.92R FOG
DE KALB*       CLOUDY    46  45  99 CALM      29.92R FOG
PERU*          CLOUDY    47  46  96 CALM      29.92R FOG
$$

ILZ005-006-012>014-019>023-271200-
NORTHEAST ILLINOIS

CITY           SKY/WX    TMP DP  RH WIND       PRES   REMARKS
CHICAGO-OHARE  DRIZZLE   50  48  93 NW7       29.90R FOG
CHICAGO-MIDWAY CLOUDY    50  49  96 SW7       29.91R FOG
AURORA         CLOUDY    49  47  93 W5        29.91R FOG
LANSING*       CLOUDY    49  49 100 W5        29.92R FOG
JOLIET*        CLOUDY    50  49  97 CALM      29.91S FOG
WAUKEGAN       CLOUDY    44  43  96 W3        29.90R
DUPAGE AIRPORT CLOUDY    48  48 100 W3        29.89F FOG
KANKAKEE*      CLOUDY    49  48  97 CALM      29.93R
WHEELING       CLOUDY    48  48 100 W5        29.92R
MORRIS*        CLOUDY    48  47  96 CALM      29.90S FOG
ROMEOVILLE*    CLOUDY    48  48 100 W6        29.91R
$$

LMZ740>746-271200-
SOUTHERN LAKE MICHIGAN

STATION/POSITION SKY/WX   TEMP    WIND        PRES    VSBY  WAVE
                          AIR SEA DIR/SP/G                  HT/PER
                          (F)     (DEG/KT/KT) (MB)    (MI)  (FT/S)
HARRISON CRIB              40     360/  4/  4   N/A
BURNHAM HARBOR             41     320/  2/  4   N/A
CALUMET HARBOR             49     220/  7/ 10 1012.2R
BURNS HARBOR               46     270/  9/ 12 1013.2S
MICHIGAN CITY              47     230/ 17/ 17   N/A
$$

ILZ025>027-034>036-040-047-049-050-058-095>099-271200-
WEST-CENTRAL ILLINOIS

CITY           SKY/WX    TMP DP  RH WIND       PRES   REMARKS
QUINCY         CLOUDY    47  45  93 NE8       29.88F
GALESBURG*     CLOUDY    45  45 100 CALM      29.91R FOG
MACOMB*        FOG       46  46 100 CALM      29.94R VSB 1/2
JACKSONVILLE*  CLOUDY    46  45  96 NE6       29.89F FOG
PITTSFIELD*    DRIZZLE   48  46  93 NE7       29.88F
$$

ILZ028>032-037-038-041>044-048-051>054-059>061-271200-
CENTRAL ILLINOIS

CITY           SKY/WX    TMP DP  RH WIND       PRES   REMARKS
PONTIAC        CLOUDY    49  49  99 CALM      29.93R
BLOOMINGTON    CLOUDY    47  46  97 CALM      29.92S FOG
DECATUR        CLOUDY    44  42  93 SE6       29.92R
PEORIA         CLOUDY    49  47  93 CALM      29.92R
LACON*         CLOUDY    47  46  95 SW5       29.91R
LINCOLN*       MOCLDY    46  46 100 E3        29.91F FOG
SPRINGFIELD    MOCLDY    48  46  93 E5        29.90F FOG
TAYLORVILLE    MOCLDY    46  46 100 E6        29.89F
$$

ILZ033-039-045-046-055>057-062-063-271200-
EAST-CENTRAL ILLINOIS

CITY           SKY/WX    TMP DP  RH WIND       PRES   REMARKS
CHAMPAIGN      CLOUDY    43  41  93 SE8       29.92S
RANTOUL*       CLOUDY    47  47  97 CALM      29.92R FOG
MATTOON        CLOUDY    45  45 100 E6        29.91F FOG
PARIS*           N/A     44  44 100 CALM      29.95R FOG
$$

ILZ079-100>102-271200-
SOUTHWEST ILLINOIS

CITY           SKY/WX    TMP DP  RH WIND       PRES   REMARKS
ALTON          CLOUDY    49  47  95 NE6       29.85F
BELLEVILLE     MOCLDY    50  50 100 CALM      29.84F
CAHOKIA*       CLOUDY    51  48  89 SW5       29.87R
SPARTA*        CLOUDY    53  48  84 SE12      29.86S
$$

ILZ064>066-069>071-074>076-080>082-084>086-088>090-092>094-271200-
SOUTH-CENTRAL ILLINOIS

CITY           SKY/WX    TMP DP  RH WIND       PRES   REMARKS
CARBONDALE     CLOUDY    53  51  93 E7        29.86F
CAIRO*         CLOUDY    55  52  89 E5        29.85S
EFFINGHAM*     PTCLDY    46  46 100 E5        29.92F FOG
MARION         MOCLDY    54  54 100 E8        29.88F
MT. VERNON     CLOUDY    52  47  83 CALM      29.90S
CENTRALIA*     CLOUDY    51  49  92 SE7       29.88R
SALEM*         MOCLDY    51  47  85 E7        29.88F
METROPOLIS*    MOCLDY    54  51  89 E6        29.89S
$$

ILZ067-068-072-073-078-083-087-091-271200-
SOUTHEAST ILLINOIS

CITY           SKY/WX    TMP DP  RH WIND       PRES   REMARKS
LAWRENCEVILLE  CLEAR     43  43 100 E6        29.93F
FLORA*         PTCLDY    48  46  91 E3        29.91F
FAIRFIELD*     CLOUDY    49  47  92 CALM      29.89F
HARRISBURG*    CLOUDY    52  49  91 E6        29.90F
ROBINSON*      CLOUDY    39  39 100 CALM      29.95R FOG
CARMI*         CLOUDY    46  46  97 E5        29.91F
$$

ABBREVIATIONS USED IN REMARKS
   TC - TEMPERATURE IN CELSIUS
  WCI - WIND CHILL INDEX
   HX - HEAT INDEX
  VSB - VISIBILITY
$$





USA.gov is the U.S. government's official web portal to all federal, state and local government web resources and services.